User: anonymous   Login
Location: The D'Auria's Ocala Star Observatory
(29.0276°N, 82.1742°W)
Time: 19:36:10
(UTC-04:00)
Language:

Abrixas rocket - Orbit

View from above orbital plane
View from above orbital plane
View from above satellite
View from above satellite

Ground track
Ground track

The orbit data is extracted from the following two-line orbital elements,

1 25723U 99022C   15108.81124645  .00018103  00000-0  46327-3 0  9995
2 25723 048.4232 019.6406 0014486 217.1417 185.6147 15.39272081884095
Epoch (UTC): 18 April 2015 19:28:11
Eccentricity: 0.0014486
inclination: 48.4232°
perigee height: 438 km
apogee height: 458 km
right ascension of ascending node: 19.6406°
argument of perigee: 217.1417°
revolutions per day: 15.39272081
mean anomaly at epoch: 185.6147°
orbit number at epoch: 88409

The dashed part of the orbit path shows where the satellite is in the earth's shadow,  

DLR